Time,TemperatureF,DewpointF,PressureIn,WindDirection,WindDirectionDegrees,WindSpeedMPH,WindSpeedGustMPH,Humidity,HourlyPrecipIn,Conditions,Clouds,dailyrainin,SoftwareType,DateUTC
2013-03-15 00:02:00,28.0,26.0,29.95,West,269,0.0,5.0,91,0.00,,,0.05,,2013-03-15 05:02:00,
2013-03-15 00:12:00,28.0,26.0,29.95,West,269,0.0,5.0,91,0.00,,,0.05,,2013-03-15 05:12:00,
2013-03-15 00:22:00,28.0,26.0,29.95,West,265,2.0,5.0,91,0.00,,,0.05,,2013-03-15 05:22:00,
2013-03-15 00:32:00,28.0,26.0,29.95,WSW,244,3.0,7.0,91,0.00,,,0.05,,2013-03-15 05:32:00,
2013-03-15 00:42:00,28.0,26.0,29.95,WSW,244,3.0,7.0,91,0.00,,,0.05,,2013-03-15 05:42:00,
2013-03-15 00:52:00,28.0,25.0,29.95,West,270,4.0,8.0,90,0.00,,,0.05,,2013-03-15 05:52:00,
2013-03-15 01:02:00,28.0,25.0,29.94,West,260,4.0,6.0,90,0.00,,,0.05,,2013-03-15 06:02:00,
2013-03-15 01:12:00,28.0,25.0,29.94,West,260,4.0,6.0,90,0.00,,,0.05,,2013-03-15 06:12:00,
2013-03-15 01:22:00,29.0,26.0,29.93,SW,225,4.0,7.0,90,0.00,,,0.05,,2013-03-15 06:22:00,
2013-03-15 01:32:00,29.0,26.0,29.92,West,281,3.0,7.0,90,0.00,,,0.05,,2013-03-15 06:32:00,
2013-03-15 01:42:00,29.0,26.0,29.92,West,281,3.0,7.0,90,0.00,,,0.05,,2013-03-15 06:42:00,
2013-03-15 01:53:00,29.0,26.0,29.92,West,260,3.0,6.0,90,0.00,,,0.05,,2013-03-15 06:53:00,
2013-03-15 02:02:00,28.0,25.0,29.92,West,261,3.0,5.0,90,0.00,,,0.05,,2013-03-15 07:02:00,
2013-03-15 02:12:00,28.0,25.0,29.92,West,261,3.0,5.0,90,0.00,,,0.05,,2013-03-15 07:12:00,
2013-03-15 02:22:00,28.0,25.0,29.92,West,267,3.0,6.0,90,0.00,,,0.05,,2013-03-15 07:22:00,
2013-03-15 02:32:00,28.0,26.0,29.92,WSW,250,3.0,8.0,91,0.00,,,0.05,,2013-03-15 07:32:00,
2013-03-15 02:42:00,28.0,26.0,29.92,WSW,250,3.0,8.0,91,0.00,,,0.05,,2013-03-15 07:42:00,
2013-03-15 02:52:00,28.0,26.0,29.91,West,274,2.0,5.0,91,0.00,,,0.05,,2013-03-15 07:52:00,
2013-03-15 03:02:00,28.0,26.0,29.90,West,270,3.0,6.0,91,0.00,,,0.05,,2013-03-15 08:02:00,
2013-03-15 03:12:00,28.0,26.0,29.90,West,270,3.0,6.0,91,0.00,,,0.05,,2013-03-15 08:12:00,
2013-03-15 03:22:00,28.0,26.0,29.89,West,265,3.0,5.0,91,0.00,,,0.05,,2013-03-15 08:22:00,
2013-03-15 03:32:00,28.0,26.0,29.89,West,267,3.0,6.0,91,0.00,,,0.05,,2013-03-15 08:32:00,
2013-03-15 03:42:00,28.0,26.0,29.89,West,267,3.0,6.0,91,0.00,,,0.05,,2013-03-15 08:42:00,
2013-03-15 03:52:00,28.0,26.0,29.88,West,273,1.0,4.0,91,0.00,,,0.05,,2013-03-15 08:52:00,
2013-03-15 04:02:00,28.0,26.0,29.88,SW,227,1.0,4.0,91,0.00,,,0.05,,2013-03-15 09:02:00,
2013-03-15 04:12:00,28.0,26.0,29.88,SW,227,1.0,4.0,91,0.00,,,0.05,,2013-03-15 09:12:00,
2013-03-15 04:22:00,27.0,25.0,29.88,SW,227,0.0,3.0,92,0.00,,,0.05,,2013-03-15 09:22:00,
2013-03-15 04:33:00,27.0,25.0,29.88,WSW,244,1.0,3.0,92,0.00,,,0.05,,2013-03-15 09:33:00,
2013-03-15 04:43:00,27.0,25.0,29.88,WSW,244,1.0,3.0,92,0.00,,,0.05,,2013-03-15 09:43:00,
2013-03-15 04:53:00,27.0,25.0,29.88,WSW,244,0.0,4.0,92,0.00,,,0.05,,2013-03-15 09:53:00,
2013-03-15 05:03:00,27.0,25.0,29.87,WSW,252,0.0,3.0,93,0.00,,,0.05,,2013-03-15 10:03:00,
2013-03-15 05:12:00,27.0,25.0,29.87,WSW,252,0.0,3.0,93,0.00,,,0.05,,2013-03-15 10:12:00,
2013-03-15 05:23:00,27.0,25.0,29.87,West,268,2.0,4.0,93,0.00,,,0.05,,2013-03-15 10:23:00,
2013-03-15 05:33:00,27.0,25.0,29.87,WNW,286,3.0,5.0,93,0.00,,,0.05,,2013-03-15 10:33:00,
2013-03-15 05:42:00,27.0,25.0,29.87,WNW,286,3.0,5.0,93,0.00,,,0.05,,2013-03-15 10:42:00,
2013-03-15 05:52:00,27.0,25.0,29.86,West,276,2.0,5.0,93,0.00,,,0.05,,2013-03-15 10:52:00,
2013-03-15 06:02:00,28.0,26.0,29.86,WNW,284,2.0,5.0,93,0.00,,,0.05,,2013-03-15 11:02:00,
2013-03-15 06:12:00,28.0,26.0,29.86,WNW,284,2.0,5.0,93,0.00,,,0.05,,2013-03-15 11:12:00,
2013-03-15 06:22:00,28.0,26.0,29.87,West,280,1.0,5.0,92,0.00,,,0.05,,2013-03-15 11:22:00,
2013-03-15 06:32:00,28.0,26.0,29.87,WSW,258,1.0,3.0,93,0.00,,,0.05,,2013-03-15 11:32:00,
2013-03-15 06:42:00,28.0,26.0,29.87,WSW,258,1.0,3.0,93,0.00,,,0.05,,2013-03-15 11:42:00,
2013-03-15 06:52:00,28.0,26.0,29.87,WSW,241,4.0,7.0,93,0.00,,,0.05,,2013-03-15 11:52:00,
2013-03-15 07:02:00,28.0,26.0,29.88,WSW,250,5.0,9.0,92,0.00,,,0.05,,2013-03-15 12:02:00,
2013-03-15 07:12:00,28.0,26.0,29.88,WSW,250,5.0,9.0,92,0.00,,,0.05,,2013-03-15 12:12:00,
2013-03-15 07:23:00,28.0,26.0,29.88,West,267,3.0,8.0,92,0.00,,,0.05,,2013-03-15 12:23:00,
2013-03-15 07:32:00,28.0,26.0,29.88,WNW,290,3.0,6.0,93,0.00,,,0.05,,2013-03-15 12:32:00,
2013-03-15 07:42:00,28.0,26.0,29.88,WNW,290,3.0,6.0,93,0.00,,,0.05,,2013-03-15 12:42:00,
2013-03-15 07:52:00,29.0,27.0,29.88,NW,304,3.0,7.0,94,0.00,,,0.05,,2013-03-15 12:52:00,
2013-03-15 08:02:00,29.0,27.0,29.88,WNW,294,5.0,8.0,94,0.00,,,0.05,,2013-03-15 13:02:00,
2013-03-15 08:12:00,29.0,27.0,29.88,WNW,294,5.0,8.0,94,0.00,,,0.05,,2013-03-15 13:12:00,
2013-03-15 08:22:00,29.0,27.0,29.88,WNW,301,4.0,8.0,94,0.00,,,0.05,,2013-03-15 13:22:00,
2013-03-15 08:32:00,29.0,28.0,29.88,WNW,293,3.0,6.0,95,0.00,,,0.05,,2013-03-15 13:32:00,
2013-03-15 08:42:00,29.0,28.0,29.88,WNW,293,3.0,6.0,95,0.00,,,0.05,,2013-03-15 13:42:00,
2013-03-15 08:52:00,29.0,28.0,29.88,NW,323,2.0,5.0,95,0.00,,,0.05,,2013-03-15 13:52:00,
2013-03-15 09:02:00,29.0,28.0,29.87,NW,304,1.0,5.0,95,0.00,,,0.05,,2013-03-15 14:02:00,
2013-03-15 09:12:00,29.0,28.0,29.87,NW,304,1.0,5.0,95,0.00,,,0.05,,2013-03-15 14:12:00,
2013-03-15 09:22:00,29.0,28.0,29.86,North,355,3.0,5.0,95,0.00,,,0.05,,2013-03-15 14:22:00,
2013-03-15 09:32:00,30.0,29.0,29.86,North,355,2.0,5.0,95,0.00,,,0.05,,2013-03-15 14:32:00,
2013-03-15 09:42:00,30.0,29.0,29.86,North,355,2.0,5.0,95,0.00,,,0.05,,2013-03-15 14:42:00,
2013-03-15 09:53:00,30.0,28.0,29.86,North,350,2.0,4.0,94,0.00,,,0.05,,2013-03-15 14:53:00,
2013-03-15 10:02:00,30.0,28.0,29.86,NE,38,1.0,5.0,94,0.00,,,0.05,,2013-03-15 15:02:00,
2013-03-15 10:13:00,30.0,28.0,29.86,NE,38,1.0,5.0,94,0.00,,,0.05,,2013-03-15 15:13:00,
2013-03-15 10:22:00,31.0,29.0,29.86,NNE,15,3.0,5.0,94,0.00,,,0.05,,2013-03-15 15:22:00,
2013-03-15 10:33:00,31.0,29.0,29.86,North,360,3.0,6.0,93,0.00,,,0.05,,2013-03-15 15:33:00,
2013-03-15 10:42:00,31.0,29.0,29.86,North,360,3.0,6.0,93,0.00,,,0.05,,2013-03-15 15:42:00,
2013-03-15 10:53:00,31.0,29.0,29.86,NNE,16,3.0,5.0,93,0.01,,,0.06,,2013-03-15 15:53:00,
2013-03-15 11:02:00,31.0,29.0,29.86,NNE,22,3.0,7.0,93,0.01,,,0.06,,2013-03-15 16:02:00,
2013-03-15 11:12:00,31.0,29.0,29.86,NNE,32,3.0,6.0,94,0.01,,,0.06,,2013-03-15 16:12:00,
2013-03-15 11:22:00,31.0,29.0,29.86,NNE,32,3.0,6.0,94,0.01,,,0.06,,2013-03-15 16:22:00,
2013-03-15 11:32:00,32.0,30.0,29.86,ENE,57,4.0,6.0,94,0.01,,,0.06,,2013-03-15 16:32:00,
2013-03-15 11:42:00,32.0,30.0,29.86,ENE,57,4.0,6.0,94,0.01,,,0.06,,2013-03-15 16:42:00,
2013-03-15 11:52:00,32.0,30.0,29.86,NE,51,4.0,8.0,93,0.00,,,0.06,,2013-03-15 16:52:00,
2013-03-15 12:02:00,33.0,31.0,29.86,North,5,4.0,6.0,93,0.00,,,0.06,,2013-03-15 17:02:00,
2013-03-15 12:12:00,33.0,31.0,29.86,North,5,4.0,6.0,93,0.00,,,0.06,,2013-03-15 17:12:00,
2013-03-15 12:22:00,33.0,31.0,29.87,NNE,33,5.0,8.0,92,0.00,,,0.06,,2013-03-15 17:22:00,
2013-03-15 12:32:00,34.0,32.0,29.86,NE,40,3.0,7.0,91,0.00,,,0.06,,2013-03-15 17:32:00,
2013-03-15 12:42:00,34.0,32.0,29.86,NE,40,3.0,7.0,91,0.00,,,0.06,,2013-03-15 17:42:00,
2013-03-15 12:53:00,34.0,31.0,29.86,ENE,61,4.0,6.0,90,0.00,,,0.06,,2013-03-15 17:53:00,
2013-03-15 13:02:00,34.0,32.0,29.86,NE,38,3.0,6.0,91,0.00,,,0.06,,2013-03-15 18:02:00,
2013-03-15 13:12:00,34.0,32.0,29.86,NE,38,3.0,6.0,91,0.00,,,0.06,,2013-03-15 18:12:00,
2013-03-15 13:22:00,34.0,31.0,29.86,NE,42,3.0,5.0,90,0.00,,,0.05,,2013-03-15 18:22:00,
2013-03-15 13:32:00,34.0,31.0,29.86,NE,49,2.0,6.0,90,0.00,,,0.05,,2013-03-15 18:32:00,
2013-03-15 13:42:00,34.0,31.0,29.86,NE,49,2.0,6.0,90,0.00,,,0.05,,2013-03-15 18:42:00,
2013-03-15 13:52:00,34.0,31.0,29.86,NE,54,3.0,5.0,90,0.00,,,0.05,,2013-03-15 18:52:00,
2013-03-15 14:02:00,34.0,31.0,29.85,NE,42,3.0,5.0,89,0.01,,,0.06,,2013-03-15 19:02:00,
2013-03-15 14:12:00,34.0,31.0,29.85,NE,42,3.0,5.0,89,0.01,,,0.06,,2013-03-15 19:12:00,
2013-03-15 14:22:00,35.0,32.0,29.85,ENE,59,4.0,6.0,87,0.01,,,0.06,,2013-03-15 19:22:00,
2013-03-15 14:32:00,35.0,32.0,29.84,NE,42,3.0,5.0,87,0.01,,,0.06,,2013-03-15 19:32:00,
2013-03-15 14:42:00,35.0,32.0,29.84,NE,42,3.0,5.0,87,0.01,,,0.06,,2013-03-15 19:42:00,
2013-03-15 14:52:00,35.0,31.0,29.83,NE,35,4.0,6.0,86,0.01,,,0.06,,2013-03-15 19:52:00,
2013-03-15 15:02:00,35.0,32.0,29.83,ENE,68,4.0,7.0,87,0.00,,,0.06,,2013-03-15 20:02:00,
2013-03-15 15:12:00,35.0,32.0,29.83,ENE,68,4.0,7.0,87,0.00,,,0.06,,2013-03-15 20:12:00,
2013-03-15 15:22:00,35.0,32.0,29.82,ENE,65,4.0,7.0,88,0.00,,,0.05,,2013-03-15 20:22:00,
2013-03-15 15:32:00,34.0,31.0,29.81,ENE,57,4.0,7.0,89,0.00,,,0.05,,2013-03-15 20:32:00,
2013-03-15 15:42:00,34.0,31.0,29.81,ENE,57,4.0,7.0,89,0.00,,,0.05,,2013-03-15 20:42:00,
2013-03-15 15:52:00,34.0,31.0,29.81,ENE,57,4.0,7.0,90,0.00,,,0.05,,2013-03-15 20:52:00,
2013-03-15 16:02:00,34.0,32.0,29.81,North,360,3.0,6.0,91,0.00,,,0.05,,2013-03-15 21:02:00,
2013-03-15 16:12:00,34.0,32.0,29.81,North,360,3.0,6.0,91,0.00,,,0.05,,2013-03-15 21:12:00,
2013-03-15 16:22:00,33.0,30.0,29.81,NNE,26,3.0,5.0,90,0.00,,,0.04,,2013-03-15 21:22:00,
2013-03-15 16:33:00,33.0,31.0,29.82,North,351,2.0,5.0,91,0.01,,,0.05,,2013-03-15 21:33:00,
2013-03-15 16:43:00,33.0,31.0,29.82,North,351,2.0,5.0,91,0.01,,,0.05,,2013-03-15 21:43:00,
2013-03-15 16:53:00,33.0,31.0,29.81,NNE,22,3.0,4.0,91,0.01,,,0.05,,2013-03-15 21:53:00,
2013-03-15 17:03:00,33.0,31.0,29.80,NE,52,4.0,8.0,91,0.01,,,0.05,,2013-03-15 22:03:00,
2013-03-15 17:13:00,33.0,31.0,29.80,NE,52,4.0,8.0,91,0.01,,,0.05,,2013-03-15 22:13:00,
2013-03-15 17:22:00,33.0,31.0,29.80,ENE,64,3.0,5.0,92,0.01,,,0.03,,2013-03-15 22:22:00,
2013-03-15 17:32:00,33.0,31.0,29.79,NE,56,3.0,5.0,94,0.00,,,0.03,,2013-03-15 22:32:00,
2013-03-15 17:42:00,33.0,31.0,29.79,NE,56,3.0,5.0,94,0.00,,,0.03,,2013-03-15 22:42:00,
2013-03-15 17:52:00,33.0,31.0,29.79,ENE,63,3.0,5.0,94,0.00,,,0.03,,2013-03-15 22:52:00,
2013-03-15 18:02:00,33.0,32.0,29.79,ENE,65,1.0,5.0,95,0.01,,,0.04,,2013-03-15 23:02:00,
2013-03-15 18:12:00,33.0,32.0,29.79,ENE,65,1.0,5.0,95,0.01,,,0.04,,2013-03-15 23:12:00,
2013-03-15 18:22:00,33.0,32.0,29.79,ENE,66,1.0,4.0,95,0.01,,,0.04,,2013-03-15 23:22:00,
2013-03-15 18:32:00,33.0,32.0,29.79,ESE,114,3.0,9.0,95,0.01,,,0.04,,2013-03-15 23:32:00,
2013-03-15 18:42:00,33.0,32.0,29.79,ESE,114,3.0,9.0,95,0.01,,,0.04,,2013-03-15 23:42:00,
2013-03-15 18:53:00,32.0,31.0,29.80,East,101,3.0,6.0,95,0.01,,,0.04,,2013-03-15 23:53:00,
2013-03-15 19:02:00,32.0,31.0,29.80,ESE,111,3.0,8.0,96,0.00,,,0.04,,2013-03-16 00:02:00,
2013-03-15 19:12:00,32.0,31.0,29.80,ESE,111,3.0,8.0,96,0.00,,,0.04,,2013-03-16 00:12:00,
2013-03-15 19:22:00,32.0,31.0,29.79,ESE,114,3.0,6.0,96,0.00,,,0.04,,2013-03-16 00:22:00,
2013-03-15 19:32:00,32.0,31.0,29.79,ESE,109,3.0,8.0,96,0.00,,,0.04,,2013-03-16 00:32:00,
2013-03-15 19:42:00,32.0,31.0,29.79,ESE,109,3.0,8.0,96,0.00,,,0.04,,2013-03-16 00:42:00,
2013-03-15 19:52:00,32.0,31.0,29.79,East,97,2.0,5.0,96,0.00,,,0.04,,2013-03-16 00:52:00,
2013-03-15 20:02:00,31.0,30.0,29.79,ESE,114,1.0,6.0,96,0.00,,,0.04,,2013-03-16 01:02:00,
2013-03-15 20:12:00,31.0,30.0,29.79,ESE,114,1.0,6.0,96,0.00,,,0.04,,2013-03-16 01:12:00,
2013-03-15 20:21:00,31.0,30.0,29.79,East,98,1.0,5.0,96,0.00,,,0.04,,2013-03-16 01:21:00,
2013-03-15 20:32:00,31.0,30.0,29.79,SE,145,1.0,5.0,97,0.00,,,0.04,,2013-03-16 01:32:00,
2013-03-15 20:42:00,31.0,30.0,29.79,SE,145,1.0,5.0,97,0.00,,,0.04,,2013-03-16 01:42:00,
2013-03-15 20:52:00,31.0,30.0,29.79,East,91,2.0,5.0,97,0.00,,,0.04,,2013-03-16 01:52:00,
2013-03-15 21:02:00,31.0,30.0,29.79,East,88,3.0,6.0,97,0.00,,,0.04,,2013-03-16 02:02:00,
2013-03-15 21:12:00,31.0,30.0,29.79,East,88,3.0,6.0,97,0.00,,,0.04,,2013-03-16 02:12:00,
2013-03-15 21:23:00,31.0,30.0,29.78,East,88,3.0,6.0,97,0.00,,,0.04,,2013-03-16 02:23:00,
2013-03-15 21:32:00,31.0,30.0,29.78,ESE,111,1.0,4.0,97,0.00,,,0.04,,2013-03-16 02:32:00,
2013-03-15 21:42:00,31.0,30.0,29.78,ESE,111,1.0,4.0,97,0.00,,,0.04,,2013-03-16 02:42:00,
2013-03-15 21:52:00,31.0,30.0,29.78,East,96,3.0,6.0,97,0.00,,,0.04,,2013-03-16 02:52:00,
2013-03-15 22:02:00,30.0,29.0,29.79,East,91,2.0,6.0,97,0.00,,,0.04,,2013-03-16 03:02:00,
2013-03-15 22:12:00,30.0,29.0,29.79,East,91,2.0,6.0,97,0.00,,,0.04,,2013-03-16 03:12:00,
2013-03-15 22:22:00,30.0,29.0,29.79,East,85,3.0,7.0,96,0.00,,,0.04,,2013-03-16 03:22:00,
2013-03-15 22:32:00,29.0,28.0,29.80,ESE,104,3.0,9.0,96,0.00,,,0.04,,2013-03-16 03:32:00,
2013-03-15 22:43:00,29.0,28.0,29.80,ESE,104,3.0,9.0,96,0.00,,,0.04,,2013-03-16 03:43:00,
2013-03-15 22:53:00,29.0,28.0,29.80,East,94,3.0,9.0,97,0.00,,,0.04,,2013-03-16 03:53:00,
2013-03-15 23:02:00,29.0,28.0,29.79,ESE,120,3.0,5.0,97,0.00,,,0.04,,2013-03-16 04:02:00,
2013-03-15 23:12:00,29.0,28.0,29.79,ESE,120,3.0,5.0,97,0.00,,,0.04,,2013-03-16 04:12:00,
2013-03-15 23:23:00,29.0,28.0,29.80,East,88,4.0,6.0,97,0.00,,,0.04,,2013-03-16 04:23:00,
2013-03-15 23:32:00,28.0,27.0,29.80,East,86,5.0,8.0,96,0.00,,,0.04,,2013-03-16 04:32:00,
2013-03-15 23:43:00,28.0,27.0,29.80,East,86,5.0,8.0,96,0.00,,,0.04,,2013-03-16 04:43:00,
2013-03-15 23:53:00,27.0,26.0,29.82,ESE,111,5.0,10.0,95,0.00,,,0.04,,2013-03-16 04:53:00,